DECAYED

STARLINK-6151, 57118 (Decayed)

Orbit data source: Space-Track

STARLINK-6151, 57118 was a payload satellite owned by SpaceX/Seattle (US) in LEO that was launched on Fri, 23 Jun 2023 UTC via an FALCON 9 launch vehicle from the Air Force Eastern Test Range (AFETR). Payload-class satellites include a variety of spacecraft equipped with specific instruments for various scientific and technological missions. These include communications satellites like Starlink; space stations such as the ISS; scientific satellites like the Hubble; Earth observation satellites from companies like Planet Labs, Umbra, and HawkEye 360; GPS; miniature CubeSats for education and research; and military/defense satellites.

Not visible in the next 10 days
Identifier
57118, 2023-090T
Orbit
Decayed
Country
Flag of USUS
Related business
Manufacturer
SpaceX/Seattle
Mission
Decayed Commercial Communications
Bus & Motor
STARLINK, Unknown motor
Mass
305 kg wet, ~290 kg dry
Launch date (UTC)
2023-06-23 (3 years ago)
Launch vehicle
FALCON 9
Launch site
Air Force Eastern Test Range (AFETR)
Object type
Payload
Rocket body
Debris
Shape & HBR
Box + 1 Pan, 10.1 m
Radar Cross Section
11.087 m², Large (>1 m²)

Expand to show TLE details & history
Last TLE update: 4 months ago

TLE from 4 months ago
0 STARLINK-6151
1 57118U 23090T   26066.55618701  .10428700  94357-5  43886-3 0  9996
2 57118  42.9638 160.4305 0005231 331.6424  28.4184 16.43599478151548
Epoch: 2026-03-07T13:20Z
TLE epoch observation values (Epoch: 2026-03-07T13:20:54.557Z)
Latitude
-0.00005°
Longitude
154.92699°
Altitude
152.999 km
Speed
7.818 km/s
True Right ascension
10h 41m 43s
True Declination
0° 00' 00"
Sunlit
Object was in full shadow at epoch
Visualization orbit readout
Latitude
Unknown
Longitude
Unknown
Altitude
Unknown
Speed
Unknown
Apparent Right ascension
Unknown
Apparent Declination
Unknown
Sunlit
N/A
Visualization observer readout
Local Sidereal Time
21:31:47
Azimuth
Unknown
Elevation
Unknown
Doppler factor
Unknown
Orbital elements
Apogee altitude
161.713 km
Perigee altitude
154.874 km
Semi-major axis
6,536.43 km
Eccentricity
0.00052
Inclination
42.9638°
RAAN
160.4305°
Arg. of periapsis
331.6424°
True anomaly
28.44694°
Mean anomaly
28.4184°
Eccentric anomaly
28.43267°
Mean motion
4.10707 °/min
Orbital period
87.65 mins
BSTAR
0.00043886
Loading maneuver chart data...
Computing Atmospheric mass density...
Loading historical data...
Loading historical data...
Loading historical data...
Loading historical data...
Loading historical data...
Loading historical data...
Loading historical data...

Documentation

Showing up to 5 results
|